Station Historical Data
Daily Summary for March 5, 2011 Units:  English    Metric   Both
« Previous Day
Next Day »
Daily Weekly Monthly Yearly Custom
  High: Low: Average:
Temperature: 56.1 °F 39.1 °F 51.6 °F
Dew Point: 54.9 °F 38.1 °F 50.2 °F
Humidity: 98% 90% 95%
Wind Speed: 22.0mph 0.0mph 8.3mph
Wind Gust: 27.0mph - -
Wind- - SSW
Pressure: 30.12 in 29.91 in -
Precipitation: 1.70 in    
Historical Graphs
 
 
Tabular Data for March 5, 2011
Time Temperature Dew Point Pressure Wind Wind Speed Wind Gust Humidity Rainfall Rate (Hourly) Conditions
00:00 53.6 °F 51.0 °F 30.11 in SE 17.0 mph 17.0 mph 91% 0.00 in
00:01 53.6 °F 51.0 °F 30.11 in SSE 10.0 mph 20.0 mph 91% 0.00 in
00:02 53.6 °F 51.0 °F 30.11 in ESE 16.0 mph 20.0 mph 91% 0.00 in
00:06 53.7 °F 51.1 °F 30.11 in SE 9.0 mph 20.0 mph 91% 0.00 in
00:08 53.6 °F 51.0 °F 30.11 in SE 18.0 mph 18.0 mph 91% 0.00 in
00:13 53.7 °F 51.1 °F 30.11 in SSE 15.0 mph 18.0 mph 91% 0.00 in
00:14 53.7 °F 51.1 °F 30.11 in ESE 15.0 mph 19.0 mph 91% 0.00 in
00:18 53.8 °F 51.2 °F 30.11 in SSE 15.0 mph 21.0 mph 91% 0.00 in
00:19 53.8 °F 51.2 °F 30.11 in SE 13.0 mph 21.0 mph 91% 0.00 in
00:23 53.9 °F 51.3 °F 30.11 in SE 13.0 mph 24.0 mph 91% 0.00 in
00:24 53.9 °F 51.3 °F 30.11 in SE 13.0 mph 17.0 mph 91% 0.00 in
00:29 53.9 °F 51.3 °F 30.11 in SSE 14.0 mph 22.0 mph 91% 0.00 in
00:30 53.9 °F 51.3 °F 30.12 in SSE 11.0 mph 22.0 mph 91% 0.00 in
00:35 53.9 °F 51.3 °F 30.11 in SSE 12.0 mph 13.0 mph 91% 0.00 in
00:40 54.1 °F 51.2 °F 30.11 in SSW 13.0 mph 20.0 mph 90% 0.00 in
00:45 54.0 °F 51.4 °F 30.11 in SSE 18.0 mph 18.0 mph 91% 0.00 in
00:47 54.0 °F 51.1 °F 30.11 in ESE 12.0 mph 19.0 mph 90% 0.00 in
00:50 53.9 °F 51.3 °F 30.11 in SSE 14.0 mph 16.0 mph 91% 0.00 in
00:51 53.9 °F 51.3 °F 30.11 in SE 11.0 mph 16.0 mph 91% 0.00 in
00:52 53.9 °F 51.3 °F 30.11 in SSE 8.0 mph 18.0 mph 91% 0.00 in
00:57 53.8 °F 51.2 °F 30.11 in SSE 12.0 mph 17.0 mph 91% 0.00 in
00:59 53.7 °F 51.4 °F 30.11 in SE 14.0 mph 17.0 mph 92% 0.00 in
01:02 53.7 °F 51.4 °F 30.11 in SSE 12.0 mph 23.0 mph 92% 0.00 in
01:04 53.7 °F 51.4 °F 30.11 in SE 13.0 mph 19.0 mph 92% 0.00 in
01:07 53.6 °F 51.3 °F 30.10 in SSE 12.0 mph 19.0 mph 92% 0.06 in
01:09 53.5 °F 51.5 °F 30.10 in ESE 14.0 mph 15.0 mph 93% 0.06 in
01:14 53.5 °F 51.5 °F 30.10 in ESE 17.0 mph 27.0 mph 93% 0.08 in
01:19 53.5 °F 51.5 °F 30.09 in SE 15.0 mph 21.0 mph 93% 0.08 in
01:20 53.5 °F 51.5 °F 30.09 in SSE 20.0 mph 21.0 mph 93% 0.08 in
01:25 53.6 °F 51.6 °F 30.09 in SE 20.0 mph 24.0 mph 93% 0.07 in
01:26 53.6 °F 51.6 °F 30.08 in ESE 9.0 mph 24.0 mph 93% 0.07 in
01:30 53.6 °F 51.3 °F 30.08 in SE 13.0 mph 22.0 mph 92% 0.07 in
01:33 53.6 °F 51.3 °F 30.08 in SE 16.0 mph 25.0 mph 92% 0.05 in
01:35 53.5 °F 51.2 °F 30.08 in SE 20.0 mph 25.0 mph 92% 0.04 in
01:36 53.5 °F 51.2 °F 30.08 in SE 19.0 mph 20.0 mph 92% 0.04 in
01:43 53.5 °F 51.2 °F 30.08 in ESE 17.0 mph 23.0 mph 92% 0.00 in
01:49 53.5 °F 51.2 °F 30.08 in SE 14.0 mph 19.0 mph 92% 0.00 in
01:54 53.6 °F 51.3 °F 30.08 in SE 14.0 mph 17.0 mph 92% 0.00 in
01:59 53.7 °F 51.4 °F 30.08 in SE 11.0 mph 24.0 mph 92% 0.00 in
02:20 53.7 °F 51.4 °F 30.07 in ESE 14.0 mph 19.0 mph 92% 0.00 in
02:26 53.7 °F 51.4 °F 30.07 in SE 11.0 mph 23.0 mph 92% 0.00 in
02:32 53.7 °F 51.4 °F 30.07 in ESE 10.0 mph 18.0 mph 92% 0.00 in
02:33 53.7 °F 51.4 °F 30.07 in SE 10.0 mph 18.0 mph 92% 0.00 in
02:38 53.7 °F 51.4 °F 30.06 in SSE 13.0 mph 24.0 mph 92% 0.00 in
02:43 53.7 °F 51.4 °F 30.05 in SE 21.0 mph 24.0 mph 92% 0.00 in
02:49 53.6 °F 51.3 °F 30.06 in South 9.0 mph 21.0 mph 92% 0.00 in
02:56 53.5 °F 51.2 °F 30.05 in SSE 15.0 mph 18.0 mph 92% 0.00 in
02:59 53.4 °F 51.1 °F 30.05 in SE 13.0 mph 20.0 mph 92% 0.00 in
03:04 53.4 °F 51.1 °F 30.05 in SE 9.0 mph 19.0 mph 92% 0.00 in
03:09 53.4 °F 51.1 °F 30.05 in ESE 19.0 mph 24.0 mph 92% 0.00 in
03:14 53.3 °F 51.0 °F 30.05 in SSW 9.0 mph 17.0 mph 92% 0.00 in
03:15 53.3 °F 51.0 °F 30.05 in SSE 13.0 mph 17.0 mph 92% 0.00 in
03:19 53.3 °F 51.0 °F 30.05 in ESE 12.0 mph 18.0 mph 92% 0.00 in
03:20 53.3 °F 51.0 °F 30.05 in SE 10.0 mph 16.0 mph 92% 0.00 in
03:25 53.3 °F 51.0 °F 30.05 in SSE 11.0 mph 22.0 mph 92% 0.00 in
03:31 53.3 °F 51.0 °F 30.05 in ESE 17.0 mph 22.0 mph 92% 0.00 in
03:32 53.2 °F 50.9 °F 30.05 in SSE 15.0 mph 21.0 mph 92% 0.00 in
03:33 53.2 °F 50.9 °F 30.05 in SE 16.0 mph 19.0 mph 92% 0.00 in
03:36 53.2 °F 50.9 °F 30.05 in SE 14.0 mph 27.0 mph 92% 0.00 in
03:38 53.2 °F 51.2 °F 30.05 in SE 16.0 mph 27.0 mph 93% 0.00 in
03:41 53.1 °F 51.1 °F 30.04 in SSE 13.0 mph 24.0 mph 93% 0.10 in
03:43 53.1 °F 51.1 °F 30.04 in SE 17.0 mph 24.0 mph 93% 0.10 in
03:46 53.1 °F 51.1 °F 30.03 in SSE 19.0 mph 22.0 mph 93% 0.10 in
03:48 53.1 °F 51.1 °F 30.03 in SE 13.0 mph 22.0 mph 93% 0.09 in
03:53 53.1 °F 51.1 °F 30.03 in SSE 14.0 mph 20.0 mph 93% 0.05 in
03:54 53.1 °F 51.1 °F 30.03 in ESE 12.0 mph 22.0 mph 93% 0.05 in
03:58 53.1 °F 51.1 °F 30.04 in SE 12.0 mph 19.0 mph 93% 0.04 in
03:59 53.0 °F 51.0 °F 30.04 in ESE 13.0 mph 19.0 mph 93% 0.00 in
04:00 53.0 °F 51.0 °F 30.03 in SSE 15.0 mph 16.0 mph 93% 0.00 in
04:04 53.0 °F 51.0 °F 30.03 in SSE 15.0 mph 24.0 mph 93% 0.00 in
04:05 53.0 °F 51.0 °F 30.03 in SE 16.0 mph 24.0 mph 93% 0.00 in
04:09 53.0 °F 51.0 °F 30.03 in SE 17.0 mph 20.0 mph 93% 0.00 in
04:10 53.0 °F 51.0 °F 30.03 in ESE 18.0 mph 20.0 mph 93% 0.00 in
04:15 53.0 °F 51.0 °F 30.02 in SSE 17.0 mph 21.0 mph 93% 0.00 in
04:20 53.0 °F 51.0 °F 30.02 in SE 16.0 mph 19.0 mph 93% 0.00 in
04:21 53.0 °F 51.0 °F 30.02 in SE 12.0 mph 19.0 mph 93% 0.00 in
04:26 53.1 °F 51.1 °F 30.02 in SE 13.0 mph 19.0 mph 93% 0.00 in
04:27 53.1 °F 51.1 °F 30.02 in ESE 22.0 mph 22.0 mph 93% 0.00 in
04:29 53.2 °F 51.2 °F 30.02 in SE 11.0 mph 22.0 mph 93% 0.00 in
04:31 53.2 °F 51.2 °F 30.02 in SE 12.0 mph 20.0 mph 93% 0.00 in
04:32 53.1 °F 51.1 °F 30.02 in ESE 12.0 mph 20.0 mph 93% 0.00 in
04:33 53.1 °F 51.1 °F 30.02 in SSE 12.0 mph 15.0 mph 93% 0.00 in
04:37 53.1 °F 51.1 °F 30.02 in SE 19.0 mph 19.0 mph 93% 0.00 in
04:38 53.2 °F 51.2 °F 30.02 in ESE 13.0 mph 22.0 mph 93% 0.00 in
04:42 53.3 °F 51.0 °F 30.02 in SSE 11.0 mph 25.0 mph 92% 0.00 in
04:43 53.2 °F 51.2 °F 30.02 in SE 17.0 mph 22.0 mph 93% 0.00 in
04:47 53.2 °F 51.2 °F 30.02 in SE 14.0 mph 18.0 mph 93% 0.00 in
04:49 53.2 °F 51.2 °F 30.02 in SE 20.0 mph 21.0 mph 93% 0.00 in
04:54 53.3 °F 51.3 °F 30.02 in SE 15.0 mph 21.0 mph 93% 0.00 in
04:55 53.3 °F 51.3 °F 30.02 in ESE 16.0 mph 16.0 mph 93% 0.00 in
04:56 53.3 °F 51.3 °F 30.01 in SE 21.0 mph 21.0 mph 93% 0.00 in
05:00 53.3 °F 51.3 °F 30.01 in SE 6.0 mph 19.0 mph 93% 0.00 in
05:02 53.3 °F 51.3 °F 30.01 in SE 16.0 mph 16.0 mph 93% 0.00 in
05:05 53.3 °F 51.3 °F 30.01 in SE 11.0 mph 17.0 mph 93% 0.00 in
05:07 53.4 °F 51.4 °F 30.01 in SE 11.0 mph 17.0 mph 93% 0.00 in
05:11 53.4 °F 51.1 °F 30.02 in SE 13.0 mph 21.0 mph 92% 0.00 in
05:16 53.5 °F 51.2 °F 30.02 in SE 10.0 mph 16.0 mph 92% 0.00 in
05:17 53.5 °F 51.2 °F 30.02 in SE 11.0 mph 15.0 mph 92% 0.00 in
05:21 53.5 °F 51.2 °F 30.02 in South 7.0 mph 21.0 mph 92% 0.00 in
05:22 53.6 °F 51.3 °F 30.02 in SSE 8.0 mph 21.0 mph 92% 0.00 in
05:27 53.6 °F 51.3 °F 30.03 in South 12.0 mph 18.0 mph 92% 0.00 in
05:28 53.6 °F 51.3 °F 30.03 in SE 19.0 mph 19.0 mph 92% 0.00 in
05:31 53.6 °F 51.3 °F 30.03 in SE 9.0 mph 17.0 mph 92% 0.00 in
05:33 53.6 °F 51.3 °F 30.03 in SE 9.0 mph 14.0 mph 92% 0.00 in
05:34 53.6 °F 51.3 °F 30.03 in ESE 11.0 mph 14.0 mph 92% 0.00 in
05:37 53.6 °F 51.3 °F 30.03 in SE 12.0 mph 16.0 mph 92% 0.00 in
05:39 53.6 °F 51.3 °F 30.03 in SE 7.0 mph 16.0 mph 92% 0.00 in
05:43 53.6 °F 51.6 °F 30.03 in SE 10.0 mph 18.0 mph 93% 0.00 in
05:44 53.7 °F 51.7 °F 30.03 in SSE 13.0 mph 18.0 mph 93% 0.00 in
05:48 53.7 °F 51.4 °F 30.03 in ESE 9.0 mph 13.0 mph 92% 0.00 in
05:49 53.7 °F 51.7 °F 30.03 in SE 12.0 mph 18.0 mph 93% 0.00 in
05:54 53.7 °F 51.7 °F 30.03 in SE 9.0 mph 16.0 mph 93% 0.00 in
05:57 53.7 °F 51.7 °F 30.03 in SE 10.0 mph 16.0 mph 93% 0.00 in
05:59 53.7 °F 51.7 °F 30.03 in SE 10.0 mph 16.0 mph 93% 0.00 in
06:02 53.7 °F 51.7 °F 30.03 in SE 7.0 mph 14.0 mph 93% 0.00 in
06:03 53.7 °F 51.7 °F 30.03 in SSE 8.0 mph 14.0 mph 93% 0.00 in
06:08 53.7 °F 51.7 °F 30.02 in SSE 11.0 mph 15.0 mph 93% 0.00 in
06:13 53.6 °F 51.6 °F 30.02 in SE 10.0 mph 16.0 mph 93% 0.00 in
06:18 53.6 °F 51.6 °F 30.02 in SE 11.0 mph 15.0 mph 93% 0.00 in
06:19 53.6 °F 51.6 °F 30.02 in SSE 11.0 mph 15.0 mph 93% 0.00 in
06:23 53.6 °F 51.9 °F 30.03 in SE 14.0 mph 14.0 mph 94% 0.00 in
06:24 53.6 °F 51.9 °F 30.03 in SE 14.0 mph 14.0 mph 94% 0.00 in
06:26 53.6 °F 51.9 °F 30.03 in SE 9.0 mph 14.0 mph 94% 0.00 in
06:29 53.6 °F 51.9 °F 30.03 in SSE 7.0 mph 13.0 mph 94% 0.00 in
06:30 53.6 °F 51.9 °F 30.03 in South 9.0 mph 11.0 mph 94% 0.00 in
06:31 53.6 °F 51.9 °F 30.03 in SSE 11.0 mph 12.0 mph 94% 0.00 in
06:35 53.6 °F 51.9 °F 30.03 in SE 9.0 mph 13.0 mph 94% 0.00 in
06:37 53.5 °F 51.8 °F 30.03 in SE 8.0 mph 12.0 mph 94% 0.00 in
06:40 53.5 °F 51.8 °F 30.03 in SSE 7.0 mph 14.0 mph 94% 0.00 in
06:42 53.6 °F 51.9 °F 30.03 in SSE 9.0 mph 12.0 mph 94% 0.00 in
06:45 53.5 °F 51.8 °F 30.03 in SE 10.0 mph 12.0 mph 94% 0.00 in
06:47 53.6 °F 51.9 °F 30.02 in ESE 7.0 mph 12.0 mph 94% 0.00 in
06:51 53.6 °F 51.9 °F 30.03 in SE 8.0 mph 12.0 mph 94% 0.00 in
06:52 53.6 °F 51.9 °F 30.02 in SE 9.0 mph 14.0 mph 94% 0.00 in
06:56 53.6 °F 51.9 °F 30.02 in SE 11.0 mph 14.0 mph 94% 0.00 in
06:57 53.6 °F 51.9 °F 30.02 in SE 8.0 mph 14.0 mph 94% 0.00 in
07:01 53.6 °F 51.9 °F 30.02 in SSE 9.0 mph 13.0 mph 94% 0.00 in
07:03 53.6 °F 52.2 °F 30.02 in SE 7.0 mph 13.0 mph 95% 0.16 in
07:07 53.6 °F 52.2 °F 30.01 in SE 6.0 mph 15.0 mph 95% 0.19 in
07:08 53.5 °F 52.1 °F 30.01 in ESE 11.0 mph 15.0 mph 95% 0.19 in
07:13 53.6 °F 52.2 °F 30.01 in SE 9.0 mph 15.0 mph 95% 0.07 in
07:18 53.6 °F 52.2 °F 30.01 in ESE 11.0 mph 13.0 mph 95% 0.05 in
07:23 53.7 °F 52.3 °F 30.01 in SE 14.0 mph 16.0 mph 95% 0.00 in
07:29 53.7 °F 52.3 °F 30.01 in ESE 10.0 mph 14.0 mph 95% 0.00 in
07:32 53.7 °F 52.3 °F 30.01 in SE 12.0 mph 16.0 mph 95% 0.00 in
07:34 53.8 °F 52.4 °F 30.01 in ESE 9.0 mph 15.0 mph 95% 0.00 in
07:35 53.8 °F 52.4 °F 30.01 in SE 10.0 mph 15.0 mph 95% 0.00 in
07:38 53.8 °F 52.4 °F 30.01 in SE 14.0 mph 14.0 mph 95% 0.00 in
07:40 53.8 °F 52.4 °F 30.01 in ESE 9.0 mph 19.0 mph 95% 0.00 in
07:43 53.8 °F 52.4 °F 30.01 in SE 9.0 mph 13.0 mph 95% 0.00 in
07:48 53.8 °F 52.4 °F 30.01 in SE 9.0 mph 17.0 mph 95% 0.00 in
07:49 53.8 °F 52.4 °F 30.01 in SE 9.0 mph 17.0 mph 95% 0.00 in
07:53 53.9 °F 52.5 °F 30.01 in SE 8.0 mph 15.0 mph 95% 0.00 in
07:54 53.9 °F 52.5 °F 30.01 in SE 10.0 mph 15.0 mph 95% 0.00 in
07:57 54.0 °F 52.6 °F 30.01 in SE 10.0 mph 12.0 mph 95% 0.00 in
07:58 54.0 °F 52.6 °F 30.01 in SSE 11.0 mph 13.0 mph 95% 0.00 in
08:00 54.0 °F 52.6 °F 30.01 in SE 7.0 mph 16.0 mph 95% 0.00 in
08:04 54.0 °F 52.6 °F 30.01 in ESE 9.0 mph 12.0 mph 95% 0.00 in
08:05 54.0 °F 52.6 °F 30.01 in SE 11.0 mph 12.0 mph 95% 0.00 in
08:10 54.0 °F 52.6 °F 30.01 in SE 11.0 mph 17.0 mph 95% 0.00 in
08:11 54.1 °F 52.7 °F 30.00 in SE 11.0 mph 17.0 mph 95% 0.00 in
08:15 54.1 °F 52.7 °F 30.00 in SE 7.0 mph 15.0 mph 95% 0.00 in
08:17 54.1 °F 52.7 °F 30.00 in SE 9.0 mph 15.0 mph 95% 0.00 in
08:21 54.2 °F 52.8 °F 30.00 in SE 8.0 mph 14.0 mph 95% 0.00 in
08:26 54.2 °F 52.8 °F 29.99 in SE 12.0 mph 19.0 mph 95% 0.00 in
08:28 54.1 °F 52.7 °F 29.99 in SE 11.0 mph 19.0 mph 95% 0.00 in
08:31 54.1 °F 52.7 °F 30.00 in SE 6.0 mph 15.0 mph 95% 0.00 in
08:34 54.2 °F 52.8 °F 30.00 in SSE 11.0 mph 17.0 mph 95% 0.00 in
08:35 54.2 °F 52.8 °F 30.00 in SE 9.0 mph 17.0 mph 95% 0.00 in
08:36 54.2 °F 52.8 °F 30.00 in ESE 13.0 mph 17.0 mph 95% 0.00 in
08:37 54.2 °F 52.8 °F 30.00 in SE 15.0 mph 17.0 mph 95% 0.00 in
08:40 54.3 °F 52.9 °F 29.99 in SE 11.0 mph 18.0 mph 95% 0.04 in
08:41 54.3 °F 52.9 °F 29.99 in SE 8.0 mph 15.0 mph 95% 0.04 in
08:42 54.3 °F 52.9 °F 29.99 in SE 12.0 mph 15.0 mph 95% 0.04 in
08:46 54.3 °F 52.9 °F 30.00 in SE 13.0 mph 17.0 mph 95% 0.04 in
08:51 54.3 °F 52.9 °F 30.00 in SE 9.0 mph 14.0 mph 95% 0.04 in
08:52 54.3 °F 52.9 °F 30.00 in SE 8.0 mph 13.0 mph 95% 0.04 in
08:53 54.3 °F 52.9 °F 30.00 in South 10.0 mph 13.0 mph 95% 0.04 in
08:57 54.4 °F 53.3 °F 30.00 in SE 17.0 mph 19.0 mph 96% 0.04 in
08:58 54.4 °F 53.3 °F 30.00 in SSE 13.0 mph 19.0 mph 96% 0.04 in
09:02 54.5 °F 53.1 °F 30.00 in SSE 11.0 mph 14.0 mph 95% 0.04 in
09:03 54.5 °F 53.1 °F 30.00 in SSE 18.0 mph 18.0 mph 95% 0.04 in
09:08 54.5 °F 53.1 °F 30.00 in SSE 12.0 mph 17.0 mph 95% 0.04 in
09:09 54.6 °F 53.2 °F 30.00 in SSE 12.0 mph 13.0 mph 95% 0.04 in
09:13 54.6 °F 53.2 °F 30.00 in SE 6.0 mph 18.0 mph 95% 0.00 in
09:14 54.6 °F 53.2 °F 30.00 in SSE 7.0 mph 17.0 mph 95% 0.00 in
09:18 54.7 °F 53.3 °F 30.00 in SSE 14.0 mph 19.0 mph 95% 0.00 in
09:19 54.7 °F 53.3 °F 30.00 in SE 8.0 mph 19.0 mph 95% 0.00 in
09:23 54.7 °F 53.3 °F 30.00 in ESE 13.0 mph 14.0 mph 95% 0.00 in
09:24 54.7 °F 53.3 °F 30.00 in SE 8.0 mph 14.0 mph 95% 0.00 in
09:25 54.7 °F 53.3 °F 30.00 in SE 12.0 mph 14.0 mph 95% 0.00 in
09:29 54.8 °F 53.4 °F 30.00 in SSE 11.0 mph 14.0 mph 95% 0.00 in
09:30 54.9 °F 53.5 °F 30.00 in SE 11.0 mph 14.0 mph 95% 0.00 in
09:31 54.9 °F 53.5 °F 30.00 in SSE 13.0 mph 14.0 mph 95% 0.00 in
09:32 54.9 °F 53.5 °F 30.00 in SE 11.0 mph 14.0 mph 95% 0.00 in
09:36 55.0 °F 53.6 °F 30.00 in SE 13.0 mph 18.0 mph 95% 0.06 in
09:37 55.0 °F 53.6 °F 30.00 in SE 7.0 mph 18.0 mph 95% 0.17 in
09:41 55.1 °F 53.7 °F 30.00 in SE 10.0 mph 15.0 mph 95% 0.13 in
09:42 55.1 °F 53.7 °F 30.00 in SE 5.0 mph 15.0 mph 95% 0.09 in
09:46 55.1 °F 53.7 °F 30.00 in South 8.0 mph 14.0 mph 95% 0.07 in
09:47 55.2 °F 53.8 °F 30.00 in SSE 9.0 mph 13.0 mph 95% 0.07 in
09:51 55.2 °F 53.8 °F 30.00 in South 7.0 mph 13.0 mph 95% 0.07 in
09:52 55.2 °F 53.8 °F 30.00 in SSE 11.0 mph 12.0 mph 95% 0.07 in
09:53 55.2 °F 53.8 °F 30.00 in SE 11.0 mph 12.0 mph 95% 0.07 in
09:58 55.2 °F 53.8 °F 30.00 in ESE 8.0 mph 13.0 mph 95% 0.06 in
10:03 55.3 °F 53.9 °F 29.99 in SSE 10.0 mph 13.0 mph 95% 0.09 in
10:08 55.4 °F 54.0 °F 29.98 in ESE 10.0 mph 14.0 mph 95% 0.43 in
10:13 55.5 °F 54.1 °F 29.99 in SE 10.0 mph 13.0 mph 95% 0.09 in
10:14 55.5 °F 54.1 °F 29.99 in SE 7.0 mph 13.0 mph 95% 0.09 in
10:19 55.6 °F 54.2 °F 29.99 in South 10.0 mph 13.0 mph 95% 0.09 in
10:24 55.6 °F 54.2 °F 29.99 in ESE 11.0 mph 11.0 mph 95% 0.06 in
10:25 55.6 °F 54.2 °F 29.99 in SE 8.0 mph 11.0 mph 95% 0.06 in
10:30 55.7 °F 54.3 °F 29.98 in SE 9.0 mph 12.0 mph 95% 0.04 in
10:31 55.7 °F 54.3 °F 29.98 in SE 12.0 mph 12.0 mph 95% 0.04 in
10:33 55.7 °F 54.3 °F 29.98 in ESE 9.0 mph 12.0 mph 95% 0.04 in
10:36 55.7 °F 54.3 °F 29.98 in SSE 10.0 mph 13.0 mph 95% 0.25 in
10:38 55.7 °F 54.3 °F 29.98 in SSE 14.0 mph 14.0 mph 95% 0.25 in
10:41 55.8 °F 54.4 °F 29.98 in ESE 11.0 mph 15.0 mph 95% 0.23 in
10:42 55.8 °F 54.4 °F 29.98 in SE 9.0 mph 15.0 mph 95% 0.23 in
10:43 55.8 °F 54.4 °F 29.98 in SSE 6.0 mph 12.0 mph 95% 0.23 in
10:48 55.8 °F 54.4 °F 29.98 in SE 14.0 mph 14.0 mph 95% 0.38 in
10:53 55.9 °F 54.5 °F 29.98 in SE 10.0 mph 11.0 mph 95% 0.17 in
10:54 55.9 °F 54.5 °F 29.98 in SSE 8.0 mph 13.0 mph 95% 0.26 in
10:58 55.9 °F 54.5 °F 29.98 in SSE 12.0 mph 13.0 mph 95% 0.14 in
10:59 55.9 °F 54.5 °F 29.98 in SE 11.0 mph 13.0 mph 95% 0.11 in
11:03 56.0 °F 54.6 °F 29.98 in South 10.0 mph 13.0 mph 95% 0.06 in
11:04 56.0 °F 54.6 °F 29.98 in SSE 10.0 mph 13.0 mph 95% 0.05 in
11:10 56.0 °F 54.6 °F 29.97 in SE 11.0 mph 14.0 mph 95% 0.04 in
11:15 56.1 °F 54.7 °F 29.97 in SSE 12.0 mph 14.0 mph 95% 0.00 in
11:20 56.1 °F 54.7 °F 29.99 in SW 5.0 mph 9.0 mph 95% 0.00 in
11:22 56.1 °F 54.7 °F 30.00 in West 6.0 mph 11.0 mph 95% 0.09 in
11:25 56.1 °F 54.7 °F 30.01 in WNW 7.0 mph 14.0 mph 95% 0.51 in
11:27 56.0 °F 54.9 °F 30.01 in WNW 13.0 mph 13.0 mph 96% 0.24 in
11:28 56.0 °F 54.9 °F 30.01 in NW 12.0 mph 16.0 mph 96% 0.24 in
11:29 55.9 °F 54.8 °F 30.01 in WNW 5.0 mph 16.0 mph 96% 0.36 in
11:30 55.8 °F 54.7 °F 30.01 in NW 7.0 mph 16.0 mph 96% 0.79 in
11:32 55.7 °F 54.6 °F 30.01 in WNW 6.0 mph 12.0 mph 96% 0.74 in
11:33 55.6 °F 54.5 °F 30.01 in WNW 5.0 mph 12.0 mph 96% 0.74 in
11:35 55.5 °F 54.4 °F 30.00 in NW 8.0 mph 11.0 mph 96% 0.51 in
11:38 55.3 °F 54.2 °F 30.01 in NW 8.0 mph 11.0 mph 96% 1.65 in
11:39 55.3 °F 54.2 °F 30.01 in WNW 6.0 mph 9.0 mph 96% 0.63 in
11:43 55.2 °F 54.1 °F 30.01 in WNW 8.0 mph 9.0 mph 96% 0.63 in
11:44 55.2 °F 54.1 °F 30.01 in NNW 6.0 mph 9.0 mph 96% 0.42 in
11:48 55.1 °F 54.0 °F 30.00 in WNW 7.0 mph 7.0 mph 96% 0.26 in
11:53 55.0 °F 53.9 °F 29.99 in WNW 5.0 mph 8.0 mph 96% 0.20 in
11:54 55.0 °F 53.9 °F 30.00 in WNW 4.0 mph 7.0 mph 96% 0.20 in
11:57 55.0 °F 53.9 °F 29.99 in NW 3.0 mph 7.0 mph 96% 0.33 in
11:58 55.0 °F 54.2 °F 29.99 in NW 3.0 mph 6.0 mph 97% 0.39 in
11:59 54.9 °F 54.1 °F 29.99 in NW 3.0 mph 6.0 mph 97% 0.39 in
12:04 54.9 °F 54.1 °F 30.00 in NW 2.0 mph 5.0 mph 97% 0.23 in
12:05 54.9 °F 54.1 °F 30.00 in West 2.0 mph 4.0 mph 97% 0.33 in
12:09 54.9 °F 54.1 °F 30.00 in WNW 2.0 mph 5.0 mph 97% 0.24 in
12:10 54.9 °F 54.1 °F 30.00 in WNW 3.0 mph 5.0 mph 97% 0.24 in
12:15 54.8 °F 54.0 °F 29.99 in NW 3.0 mph 4.0 mph 97% 0.38 in
12:16 54.8 °F 54.0 °F 29.99 in NNW 3.0 mph 4.0 mph 97% 0.47 in
12:20 54.8 °F 54.0 °F 29.99 in NW 1.0 mph 3.0 mph 97% 0.32 in
12:22 54.7 °F 53.9 °F 29.99 in NW 1.0 mph 2.0 mph 97% 0.39 in
12:25 54.7 °F 53.9 °F 29.99 in NNW 2.0 mph 2.0 mph 97% 0.35 in
12:26 54.7 °F 53.9 °F 29.99 in NNW 1.0 mph 2.0 mph 97% 0.35 in
12:27 54.7 °F 53.9 °F 29.99 in NNW 1.0 mph 2.0 mph 97% 0.47 in
12:30 54.7 °F 53.9 °F 29.98 in NNW 2.0 mph 2.0 mph 97% 0.40 in
12:31 54.7 °F 53.9 °F 29.98 in NNW 1.0 mph 2.0 mph 97% 0.36 in
12:32 54.7 °F 53.9 °F 29.98 in NNW 1.0 mph 2.0 mph 97% 0.43 in
12:35 54.7 °F 53.9 °F 29.98 in North 1.0 mph 2.0 mph 97% 0.24 in
12:36 54.7 °F 53.9 °F 29.98 in North 1.0 mph 2.0 mph 97% 0.24 in
12:37 54.6 °F 53.8 °F 29.98 in North 1.0 mph 2.0 mph 97% 0.30 in
12:42 54.7 °F 53.9 °F 29.98 in Calm   1.0 mph 97% 0.26 in
12:47 54.7 °F 53.9 °F 29.98 in Calm   1.0 mph 97% 0.36 in
12:48 54.7 °F 53.9 °F 29.98 in Calm     97% 0.39 in
12:53 54.7 °F 53.9 °F 29.98 in NE 2.0 mph 2.0 mph 97% 0.39 in
12:54 54.7 °F 53.9 °F 29.98 in NE 2.0 mph 2.0 mph 97% 0.39 in
12:58 54.7 °F 53.9 °F 29.97 in NE 2.0 mph 3.0 mph 97% 0.38 in
12:59 54.7 °F 53.9 °F 29.97 in NE 2.0 mph 2.0 mph 97% 0.38 in
13:03 54.8 °F 54.2 °F 29.97 in NE 1.0 mph 2.0 mph 98% 0.18 in
13:04 54.8 °F 54.2 °F 29.97 in Calm   2.0 mph 98% 0.18 in
13:05 54.8 °F 54.2 °F 29.97 in Calm   2.0 mph 98% 0.18 in
13:08 54.9 °F 54.3 °F 29.97 in NE 1.0 mph 1.0 mph 98% 0.13 in
13:09 54.9 °F 54.3 °F 29.97 in Calm   1.0 mph 98% 0.20 in
13:10 54.9 °F 54.3 °F 29.97 in Calm   1.0 mph 98% 0.20 in
13:15 54.9 °F 54.1 °F 29.97 in Calm   1.0 mph 97% 0.29 in
13:16 54.9 °F 54.1 °F 29.97 in Calm   1.0 mph 97% 0.29 in
13:20 54.9 °F 54.1 °F 29.97 in Calm   1.0 mph 97% 0.40 in
13:21 54.9 °F 54.1 °F 29.97 in Calm   1.0 mph 97% 0.37 in
13:26 54.8 °F 54.0 °F 29.96 in Calm   1.0 mph 97% 0.28 in
13:27 54.8 °F 54.0 °F 29.96 in NE 1.0 mph 1.0 mph 97% 0.47 in
13:32 54.9 °F 54.1 °F 29.96 in Calm   2.0 mph 97% 0.30 in
13:33 54.8 °F 54.0 °F 29.96 in Calm   2.0 mph 97% 0.33 in
13:34 54.8 °F 54.2 °F 29.96 in Calm   1.0 mph 98% 0.30 in
13:35 54.9 °F 54.3 °F 29.96 in ENE 1.0 mph 1.0 mph 98% 0.27 in
13:37 54.9 °F 54.3 °F 29.95 in NE 1.0 mph 2.0 mph 98% 0.24 in
13:38 54.9 °F 54.3 °F 29.95 in East 2.0 mph 2.0 mph 98% 0.24 in
13:39 54.9 °F 54.3 °F 29.95 in ENE 1.0 mph 2.0 mph 98% 0.24 in
13:44 54.9 °F 54.3 °F 29.95 in East 2.0 mph 2.0 mph 98% 0.22 in
13:45 54.9 °F 54.3 °F 29.95 in East 2.0 mph 2.0 mph 98% 0.22 in
13:49 55.0 °F 54.5 °F 29.95 in East 2.0 mph 2.0 mph 98% 0.17 in
13:50 55.0 °F 54.5 °F 29.95 in East 1.0 mph 2.0 mph 98% 0.12 in
13:54 55.0 °F 54.5 °F 29.95 in ENE 2.0 mph 3.0 mph 98% 0.12 in
13:55 55.0 °F 54.5 °F 29.95 in ENE 2.0 mph 3.0 mph 98% 0.12 in
13:56 55.0 °F 54.5 °F 29.95 in NE 2.0 mph 2.0 mph 98% 0.13 in
14:00 55.0 °F 54.5 °F 29.95 in ESE 1.0 mph 2.0 mph 98% 0.13 in
14:02 55.1 °F 54.5 °F 29.94 in East 1.0 mph 2.0 mph 98% 0.09 in
14:05 55.1 °F 54.5 °F 29.94 in East 2.0 mph 2.0 mph 98% 0.08 in
14:07 55.1 °F 54.3 °F 29.94 in East 1.0 mph 2.0 mph 97% 0.08 in
14:11 55.1 °F 54.5 °F 29.94 in ESE 2.0 mph 2.0 mph 98% 0.09 in
14:12 55.1 °F 54.5 °F 29.94 in ESE 2.0 mph 2.0 mph 98% 0.09 in
14:16 55.2 °F 54.7 °F 29.94 in East 1.0 mph 3.0 mph 98% 0.11 in
14:17 55.3 °F 54.8 °F 29.94 in East 1.0 mph 3.0 mph 98% 0.11 in
14:18 55.2 °F 54.7 °F 29.94 in East 1.0 mph 3.0 mph 98% 0.11 in
14:21 55.3 °F 54.8 °F 29.94 in ESE 2.0 mph 2.0 mph 98% 0.10 in
14:22 55.3 °F 54.8 °F 29.94 in ESE 2.0 mph 2.0 mph 98% 0.10 in
14:23 55.3 °F 54.5 °F 29.94 in East 2.0 mph 2.0 mph 97% 0.10 in
14:27 55.3 °F 54.5 °F 29.94 in East 3.0 mph 3.0 mph 97% 0.10 in
14:28 55.3 °F 54.5 °F 29.94 in ESE 2.0 mph 3.0 mph 97% 0.09 in
14:32 55.4 °F 54.6 °F 29.94 in ESE 1.0 mph 3.0 mph 97% 0.09 in
14:33 55.4 °F 54.8 °F 29.94 in East 1.0 mph 2.0 mph 98% 0.11 in
14:35 55.4 °F 54.6 °F 29.94 in ESE 2.0 mph 3.0 mph 97% 0.11 in
14:38 55.4 °F 54.6 °F 29.94 in ESE 2.0 mph 3.0 mph 97% 0.28 in
14:43 55.4 °F 54.6 °F 29.94 in SE 2.0 mph 2.0 mph 97% 0.15 in
14:44 55.4 °F 54.6 °F 29.94 in ESE 2.0 mph 2.0 mph 97% 0.15 in
14:48 55.5 °F 54.7 °F 29.93 in ESE 2.0 mph 3.0 mph 97% 0.18 in
14:49 55.4 °F 54.6 °F 29.93 in ESE 2.0 mph 3.0 mph 97% 0.18 in
14:54 55.4 °F 54.6 °F 29.94 in SE 3.0 mph 4.0 mph 97% 0.16 in
14:55 55.4 °F 54.6 °F 29.94 in ESE 3.0 mph 4.0 mph 97% 0.16 in
14:59 55.3 °F 54.5 °F 29.94 in ESE 2.0 mph 4.0 mph 97% 0.17 in
15:00 55.3 °F 54.5 °F 29.94 in ESE 2.0 mph 4.0 mph 97% 0.16 in
15:05 55.3 °F 54.5 °F 29.93 in ENE 1.0 mph 2.0 mph 97% 0.15 in
15:10 55.3 °F 54.5 °F 29.94 in SE 2.0 mph 2.0 mph 97% 0.10 in
15:11 55.3 °F 54.5 °F 29.94 in SSE 2.0 mph 2.0 mph 97% 0.10 in
15:15 55.3 °F 54.5 °F 29.94 in SSE 2.0 mph 3.0 mph 97% 0.14 in
15:20 55.3 °F 54.2 °F 29.94 in ESE 1.0 mph 1.0 mph 96% 0.10 in
15:21 55.3 °F 54.2 °F 29.94 in ESE 1.0 mph 1.0 mph 96% 0.10 in
15:26 55.3 °F 54.2 °F 29.94 in SE 1.0 mph 1.0 mph 96% 0.10 in
15:27 55.3 °F 54.2 °F 29.94 in SE 1.0 mph 1.0 mph 96% 0.09 in
15:28 55.2 °F 54.1 °F 29.94 in SE 1.0 mph 1.0 mph 96% 0.08 in
15:32 55.3 °F 54.2 °F 29.94 in SE 1.0 mph 1.0 mph 96% 0.06 in
15:33 55.3 °F 54.2 °F 29.94 in Calm   1.0 mph 96% 0.06 in
15:34 55.3 °F 53.9 °F 29.94 in Calm   1.0 mph 95% 0.06 in
15:38 55.4 °F 54.3 °F 29.94 in NW 1.0 mph 1.0 mph 96% 0.06 in
15:40 55.4 °F 54.0 °F 29.94 in WNW 1.0 mph 1.0 mph 95% 0.07 in
15:43 55.4 °F 54.3 °F 29.94 in WNW 1.0 mph 2.0 mph 96% 0.07 in
15:44 55.4 °F 54.3 °F 29.94 in WNW 1.0 mph 2.0 mph 96% 0.07 in
15:45 55.4 °F 54.3 °F 29.94 in WNW 1.0 mph 2.0 mph 96% 0.07 in
15:49 55.5 °F 54.7 °F 29.94 in WNW 2.0 mph 2.0 mph 97% 0.06 in
15:50 55.6 °F 54.8 °F 29.93 in WNW 1.0 mph 2.0 mph 97% 0.05 in
15:51 55.6 °F 54.8 °F 29.93 in WNW 1.0 mph 2.0 mph 97% 0.05 in
15:54 55.6 °F 54.5 °F 29.93 in WNW 4.0 mph 4.0 mph 96% 0.04 in
15:56 55.5 °F 54.4 °F 29.93 in NW 3.0 mph 4.0 mph 96% 0.04 in
15:57 55.5 °F 54.4 °F 29.93 in NW 3.0 mph 4.0 mph 96% 0.04 in
15:58 55.5 °F 54.4 °F 29.93 in WNW 2.0 mph 4.0 mph 96% 0.04 in
15:59 55.5 °F 54.4 °F 29.93 in WNW 2.0 mph 3.0 mph 96% 0.04 in
16:02 55.5 °F 54.4 °F 29.92 in NNW 3.0 mph 3.0 mph 96% 0.04 in
16:04 55.5 °F 54.4 °F 29.92 in North 2.0 mph 3.0 mph 96% 0.04 in
16:08 55.5 °F 54.4 °F 29.92 in North 2.0 mph 3.0 mph 96% 0.04 in
16:10 55.6 °F 54.5 °F 29.92 in NNW 1.0 mph 3.0 mph 96% 0.04 in
16:13 55.6 °F 54.2 °F 29.92 in NNE 1.0 mph 3.0 mph 95% 0.00 in
16:14 55.6 °F 54.2 °F 29.92 in NNE 1.0 mph 3.0 mph 95% 0.00 in
16:15 55.6 °F 54.5 °F 29.92 in NNE 1.0 mph 3.0 mph 96% 0.00 in
16:19 55.6 °F 54.5 °F 29.91 in NNE 1.0 mph 2.0 mph 96% 0.00 in
16:20 55.6 °F 54.5 °F 29.91 in NE 1.0 mph 2.0 mph 96% 0.00 in
16:21 55.6 °F 54.5 °F 29.91 in NE 2.0 mph 2.0 mph 96% 0.00 in
16:25 55.6 °F 54.5 °F 29.91 in ENE 1.0 mph 2.0 mph 96% 0.00 in
16:26 55.6 °F 54.5 °F 29.91 in ENE 1.0 mph 2.0 mph 96% 0.00 in
16:28 55.6 °F 54.5 °F 29.92 in Calm   1.0 mph 96% 0.00 in
16:31 55.6 °F 54.5 °F 29.92 in East 1.0 mph 1.0 mph 96% 0.00 in
16:32 55.6 °F 54.5 °F 29.92 in Calm   1.0 mph 96% 0.00 in
16:35 55.5 °F 54.4 °F 29.92 in East 1.0 mph 1.0 mph 96% 0.00 in
16:36 55.5 °F 54.4 °F 29.92 in East 1.0 mph 1.0 mph 96% 0.00 in
16:41 55.5 °F 54.4 °F 29.92 in ESE 1.0 mph 2.0 mph 96% 0.00 in
16:46 55.5 °F 54.4 °F 29.92 in ESE 2.0 mph 2.0 mph 96% 0.00 in
16:47 55.5 °F 54.4 °F 29.92 in SE 2.0 mph 2.0 mph 96% 0.00 in
16:51 55.5 °F 54.4 °F 29.92 in SE 1.0 mph 2.0 mph 96% 0.00 in
16:52 55.5 °F 54.4 °F 29.92 in Calm   1.0 mph 96% 0.00 in
16:53 55.5 °F 54.4 °F 29.92 in Calm   1.0 mph 96% 0.00 in
16:57 55.5 °F 54.4 °F 29.93 in West 2.0 mph 2.0 mph 96% 0.00 in
16:58 55.5 °F 54.4 °F 29.93 in West 1.0 mph 2.0 mph 96% 0.00 in
16:59 55.4 °F 54.3 °F 29.93 in West 1.0 mph 2.0 mph 96% 0.00 in
17:03 55.4 °F 54.3 °F 29.93 in West 1.0 mph 1.0 mph 96% 0.04 in
17:04 55.4 °F 54.3 °F 29.93 in Calm   1.0 mph 96% 0.04 in
17:05 55.4 °F 54.3 °F 29.93 in Calm   1.0 mph 96% 0.04 in
17:08 55.4 °F 54.3 °F 29.93 in Calm   1.0 mph 96% 0.04 in
17:09 55.4 °F 54.3 °F 29.93 in Calm   1.0 mph 96% 0.04 in
17:13 55.4 °F 54.3 °F 29.93 in West 1.0 mph 1.0 mph 96% 0.04 in
17:14 55.4 °F 54.3 °F 29.93 in West 1.0 mph 1.0 mph 96% 0.04 in
17:18 55.4 °F 54.6 °F 29.92 in ESE 2.0 mph 2.0 mph 97% 0.04 in
17:19 55.4 °F 54.6 °F 29.92 in ESE 2.0 mph 3.0 mph 97% 0.00 in
17:24 55.4 °F 54.6 °F 29.93 in SE 2.0 mph 3.0 mph 97% 0.00 in
17:25 55.3 °F 54.5 °F 29.93 in SE 1.0 mph 3.0 mph 97% 0.00 in
17:30 55.3 °F 54.5 °F 29.93 in WSW 1.0 mph 1.0 mph 97% 0.00 in
17:35 55.3 °F 54.5 °F 29.94 in WSW 1.0 mph 1.0 mph 97% 0.00 in
17:40 55.3 °F 54.5 °F 29.93 in Calm   1.0 mph 97% 0.00 in
17:45 55.3 °F 54.5 °F 29.93 in Calm   1.0 mph 97% 0.00 in
17:46 55.3 °F 54.5 °F 29.93 in Calm   1.0 mph 97% 0.00 in
17:47 55.2 °F 54.4 °F 29.93 in Calm   1.0 mph 97% 0.00 in
17:51 55.2 °F 54.4 °F 29.94 in SSE 1.0 mph 1.0 mph 97% 0.00 in
17:52 55.2 °F 54.4 °F 29.94 in SSE 1.0 mph 1.0 mph 97% 0.00 in
17:53 55.2 °F 54.4 °F 29.94 in SW 1.0 mph 1.0 mph 97% 0.00 in
17:57 55.2 °F 54.4 °F 29.94 in West 3.0 mph 3.0 mph 97% 0.00 in
17:58 55.2 °F 54.4 °F 29.95 in WNW 6.0 mph 6.0 mph 97% 0.00 in
18:02 53.4 °F 51.1 °F 29.95 in WNW 17.0 mph 17.0 mph 92% 0.05 in
18:03 52.8 °F 50.5 °F 29.95 in NW 10.0 mph 17.0 mph 92% 0.05 in
18:04 52.6 °F 50.6 °F 29.95 in WNW 13.0 mph 17.0 mph 93% 0.05 in
18:07 51.4 °F 49.5 °F 29.95 in NW 11.0 mph 18.0 mph 93% 0.12 in
18:09 51.1 °F 49.4 °F 29.95 in NW 10.0 mph 15.0 mph 94% 0.12 in
18:12 50.5 °F 49.1 °F 29.96 in WNW 6.0 mph 15.0 mph 95% 0.08 in
18:14 50.1 °F 48.7 °F 29.96 in WNW 10.0 mph 12.0 mph 95% 0.06 in
18:17 49.7 °F 48.3 °F 29.96 in NW 6.0 mph 14.0 mph 95% 0.04 in
18:18 49.6 °F 48.2 °F 29.96 in NW 5.0 mph 11.0 mph 95% 0.04 in
18:19 49.5 °F 48.1 °F 29.97 in NNW 5.0 mph 11.0 mph 95% 0.04 in
18:20 49.5 °F 48.1 °F 29.97 in NW 8.0 mph 11.0 mph 95% 0.04 in
18:23 49.0 °F 47.6 °F 29.97 in NW 8.0 mph 13.0 mph 95% 0.04 in
18:24 48.9 °F 47.5 °F 29.97 in NNW 8.0 mph 13.0 mph 95% 0.04 in
18:29 48.4 °F 47.0 °F 29.97 in NW 13.0 mph 13.0 mph 95% 0.04 in
18:30 48.3 °F 46.9 °F 29.97 in NNW 10.0 mph 13.0 mph 95% 0.04 in
18:31 48.2 °F 46.8 °F 29.97 in NW 7.0 mph 13.0 mph 95% 0.04 in
18:34 47.9 °F 46.5 °F 29.97 in NW 10.0 mph 13.0 mph 95% 0.06 in
18:35 47.9 °F 46.5 °F 29.97 in WNW 11.0 mph 13.0 mph 95% 0.06 in
18:36 47.8 °F 46.4 °F 29.97 in NW 12.0 mph 13.0 mph 95% 0.06 in
18:40 47.4 °F 46.0 °F 29.97 in NW 13.0 mph 13.0 mph 95% 0.06 in
18:41 47.4 °F 46.0 °F 29.97 in NW 12.0 mph 13.0 mph 95% 0.06 in
18:46 47.1 °F 45.7 °F 29.97 in WNW 12.0 mph 17.0 mph 95% 0.06 in
18:51 46.8 °F 45.5 °F 29.97 in NW 13.0 mph 13.0 mph 95% 0.06 in
18:52 46.7 °F 45.3 °F 29.97 in NNW 11.0 mph 13.0 mph 95% 0.06 in
18:53 46.7 °F 45.3 °F 29.97 in NNW 11.0 mph 14.0 mph 95% 0.06 in
18:57 46.5 °F 45.4 °F 29.96 in NW 9.0 mph 14.0 mph 96% 0.06 in
18:58 46.5 °F 45.4 °F 29.96 in NW 7.0 mph 13.0 mph 96% 0.06 in
18:59 46.4 °F 45.3 °F 29.96 in NW 8.0 mph 14.0 mph 96% 0.06 in
19:03 46.3 °F 45.0 °F 29.97 in NW 12.0 mph 14.0 mph 95% 0.07 in
19:08 46.0 °F 44.7 °F 29.97 in NNE 13.0 mph 14.0 mph 95% 0.07 in
19:13 45.8 °F 44.7 °F 29.97 in NW 8.0 mph 12.0 mph 96% 0.06 in
19:14 45.8 °F 44.5 °F 29.97 in NW 10.0 mph 12.0 mph 95% 0.06 in
19:15 45.7 °F 44.3 °F 29.97 in NNW 10.0 mph 13.0 mph 95% 0.06 in
19:19 45.6 °F 44.2 °F 29.97 in NNW 10.0 mph 14.0 mph 95% 0.06 in
19:24 45.5 °F 44.2 °F 29.97 in NW 9.0 mph 13.0 mph 95% 0.06 in
19:25 45.4 °F 44.0 °F 29.97 in NW 11.0 mph 14.0 mph 95% 0.06 in
19:26 45.4 °F 44.0 °F 29.97 in NNW 10.0 mph 14.0 mph 95% 0.06 in
19:29 45.4 °F 44.3 °F 29.97 in NW 8.0 mph 13.0 mph 96% 0.06 in
19:30 45.3 °F 44.2 °F 29.97 in NNW 9.0 mph 12.0 mph 96% 0.06 in
19:33 45.3 °F 44.0 °F 29.96 in NNW 6.0 mph 13.0 mph 95% 0.05 in
19:34 45.3 °F 44.2 °F 29.96 in North 12.0 mph 12.0 mph 96% 0.04 in
19:36 45.3 °F 44.2 °F 29.96 in NNW 14.0 mph 14.0 mph 96% 0.04 in
19:38 45.2 °F 44.1 °F 29.95 in NNE 10.0 mph 14.0 mph 96% 0.04 in
19:39 45.2 °F 43.9 °F 29.95 in NNW 8.0 mph 13.0 mph 95% 0.04 in
19:41 45.1 °F 44.0 °F 29.95 in NNE 7.0 mph 13.0 mph 96% 0.04 in
19:43 45.1 °F 44.0 °F 29.95 in NW 11.0 mph 15.0 mph 96% 0.04 in
19:46 45.0 °F 43.9 °F 29.96 in NW 9.0 mph 15.0 mph 96% 0.04 in
19:48 45.0 °F 43.9 °F 29.97 in NW 10.0 mph 11.0 mph 96% 0.04 in
19:51 45.0 °F 43.9 °F 29.97 in NW 9.0 mph 14.0 mph 96% 0.04 in
19:56 44.9 °F 43.8 °F 29.97 in NW 7.0 mph 12.0 mph 96% 0.04 in
19:57 44.9 °F 43.8 °F 29.97 in NNW 9.0 mph 11.0 mph 96% 0.04 in
20:02 44.9 °F 43.8 °F 29.97 in NNW 6.0 mph 11.0 mph 96% 0.06 in
20:07 44.8 °F 43.7 °F 29.97 in NNW 12.0 mph 16.0 mph 96% 0.06 in
20:12 44.8 °F 43.7 °F 29.98 in NW 6.0 mph 11.0 mph 96% 0.05 in
20:13 44.8 °F 43.7 °F 29.98 in NW 4.0 mph 11.0 mph 96% 0.05 in
20:18 44.6 °F 43.5 °F 29.97 in NW 9.0 mph 14.0 mph 96% 0.05 in
20:23 44.6 °F 43.5 °F 29.98 in NNW 5.0 mph 12.0 mph 96% 0.05 in
20:28 44.4 °F 43.1 °F 29.99 in NNW 11.0 mph 17.0 mph 95% 0.04 in
20:29 44.4 °F 43.1 °F 29.99 in NNW 11.0 mph 17.0 mph 95% 0.04 in
20:33 44.1 °F 42.8 °F 29.99 in North 10.0 mph 12.0 mph 95% 0.04 in
20:34 44.1 °F 42.8 °F 29.99 in NNW 10.0 mph 12.0 mph 95% 0.04 in
20:36 43.9 °F 42.3 °F 29.99 in NW 17.0 mph 18.0 mph 94% 0.04 in
20:39 43.5 °F 41.6 °F 29.99 in NNW 10.0 mph 17.0 mph 93% 0.04 in
20:41 43.4 °F 41.8 °F 30.00 in NNW 10.0 mph 17.0 mph 94% 0.04 in
20:44 43.1 °F 41.5 °F 29.99 in NNW 15.0 mph 16.0 mph 94% 0.04 in
20:45 43.0 °F 41.4 °F 29.99 in NNW 12.0 mph 17.0 mph 94% 0.04 in
20:50 42.7 °F 41.4 °F 29.99 in NW 9.0 mph 14.0 mph 95% 0.07 in
20:51 42.7 °F 41.4 °F 29.99 in NW 12.0 mph 14.0 mph 95% 0.07 in
20:52 42.6 °F 41.3 °F 29.99 in NNW 6.0 mph 12.0 mph 95% 0.07 in
20:56 42.5 °F 41.2 °F 29.99 in North 7.0 mph 13.0 mph 95% 0.08 in
20:57 42.4 °F 41.1 °F 29.99 in NNW 10.0 mph 17.0 mph 95% 0.08 in
20:58 42.4 °F 41.1 °F 29.99 in NW 13.0 mph 17.0 mph 95% 0.08 in
21:01 42.2 °F 40.6 °F 30.00 in NW 14.0 mph 16.0 mph 94% 0.08 in
21:02 42.2 °F 40.6 °F 30.00 in NW 9.0 mph 16.0 mph 94% 0.08 in
21:07 42.1 °F 40.8 °F 30.00 in NNW 10.0 mph 17.0 mph 95% 0.06 in
21:12 41.9 °F 40.6 °F 30.00 in NNW 10.0 mph 11.0 mph 95% 0.06 in
21:13 41.9 °F 40.6 °F 30.00 in NW 8.0 mph 12.0 mph 95% 0.06 in
21:17 41.9 °F 40.6 °F 30.01 in North 11.0 mph 13.0 mph 95% 0.05 in
21:18 41.9 °F 40.6 °F 30.01 in NNW 13.0 mph 13.0 mph 95% 0.05 in
21:23 41.8 °F 40.5 °F 30.01 in NNW 11.0 mph 16.0 mph 95% 0.05 in
21:28 41.7 °F 40.4 °F 30.01 in NNW 10.0 mph 15.0 mph 95% 0.07 in
21:30 41.6 °F 40.3 °F 30.01 in NNW 15.0 mph 15.0 mph 95% 0.07 in
21:32 41.6 °F 40.3 °F 30.01 in NNE 17.0 mph 17.0 mph 95% 0.07 in
21:33 41.5 °F 40.2 °F 30.01 in NNW 11.0 mph 18.0 mph 95% 0.07 in
21:34 41.5 °F 40.2 °F 30.01 in NW 12.0 mph 18.0 mph 95% 0.07 in
21:38 41.5 °F 40.2 °F 30.01 in NW 11.0 mph 15.0 mph 95% 0.05 in
21:39 41.4 °F 40.1 °F 30.01 in NW 9.0 mph 15.0 mph 95% 0.05 in
21:44 41.4 °F 40.1 °F 30.01 in NNW 12.0 mph 14.0 mph 95% 0.05 in
21:45 41.3 °F 40.0 °F 30.00 in North 11.0 mph 14.0 mph 95% 0.05 in
21:49 41.2 °F 39.9 °F 30.00 in NW 12.0 mph 15.0 mph 95% 0.05 in
21:50 41.2 °F 39.9 °F 30.00 in NNW 7.0 mph 15.0 mph 95% 0.05 in
21:54 41.2 °F 39.9 °F 30.01 in NNW 10.0 mph 16.0 mph 95% 0.04 in
21:55 41.2 °F 39.9 °F 30.01 in NNW 13.0 mph 16.0 mph 95% 0.00 in
21:59 41.1 °F 39.8 °F 30.01 in North 12.0 mph 16.0 mph 95% 0.00 in
22:00 41.1 °F 39.8 °F 30.00 in NNW 10.0 mph 12.0 mph 95% 0.00 in
22:04 41.1 °F 39.8 °F 30.00 in NW 13.0 mph 13.0 mph 95% 0.00 in
22:06 41.0 °F 39.7 °F 30.00 in NNW 11.0 mph 17.0 mph 95% 0.00 in
22:09 40.9 °F 39.6 °F 30.01 in NNW 8.0 mph 15.0 mph 95% 0.00 in
22:11 40.9 °F 39.8 °F 30.01 in NW 10.0 mph 11.0 mph 96% 0.00 in
22:12 40.8 °F 39.8 °F 30.01 in NNW 8.0 mph 14.0 mph 96% 0.00 in
22:14 40.7 °F 39.7 °F 30.01 in NNW 9.0 mph 14.0 mph 96% 0.00 in
22:18 40.6 °F 39.5 °F 30.01 in NW 14.0 mph 14.0 mph 96% 0.00 in
22:23 40.5 °F 39.5 °F 30.02 in NW 10.0 mph 17.0 mph 96% 0.00 in
22:24 40.4 °F 39.3 °F 30.02 in NNW 7.0 mph 12.0 mph 96% 0.00 in
22:28 40.3 °F 39.2 °F 30.02 in NNW 11.0 mph 14.0 mph 96% 0.00 in
22:29 40.3 °F 39.2 °F 30.02 in NNW 11.0 mph 14.0 mph 96% 0.00 in
22:34 40.2 °F 39.2 °F 30.02 in NW 9.0 mph 15.0 mph 96% 0.00 in
22:36 40.2 °F 39.2 °F 30.02 in NNW 10.0 mph 16.0 mph 96% 0.00 in
22:40 40.1 °F 39.0 °F 30.02 in NW 7.0 mph 17.0 mph 96% 0.00 in
22:41 40.1 °F 39.0 °F 30.02 in NNW 9.0 mph 17.0 mph 96% 0.00 in
22:45 40.0 °F 39.0 °F 30.02 in NNW 19.0 mph 19.0 mph 96% 0.00 in
22:46 40.0 °F 39.0 °F 30.02 in NW 17.0 mph 21.0 mph 96% 0.00 in
22:51 39.9 °F 38.8 °F 30.02 in NNW 6.0 mph 12.0 mph 96% 0.00 in
22:52 39.9 °F 38.8 °F 30.02 in NW 8.0 mph 12.0 mph 96% 0.00 in
22:56 39.8 °F 38.8 °F 30.02 in NNW 16.0 mph 19.0 mph 96% 0.00 in
22:57 39.8 °F 38.8 °F 30.02 in NNW 17.0 mph 19.0 mph 96% 0.00 in
22:58 39.8 °F 38.8 °F 30.01 in North 12.0 mph 19.0 mph 96% 0.00 in
23:02 39.7 °F 38.7 °F 30.02 in NNW 9.0 mph 18.0 mph 96% 0.00 in
23:03 39.7 °F 38.7 °F 30.02 in NNW 11.0 mph 16.0 mph 96% 0.00 in
23:07 39.6 °F 38.6 °F 30.02 in NW 10.0 mph 15.0 mph 96% 0.00 in
23:08 39.6 °F 38.6 °F 30.02 in NNW 9.0 mph 18.0 mph 96% 0.00 in
23:12 39.6 °F 38.6 °F 30.02 in North 12.0 mph 16.0 mph 96% 0.00 in
23:13 39.6 °F 38.6 °F 30.02 in NNW 7.0 mph 16.0 mph 96% 0.00 in
23:18 39.5 °F 38.5 °F 30.01 in NNW 8.0 mph 18.0 mph 96% 0.00 in
23:19 39.5 °F 38.5 °F 30.02 in NNW 10.0 mph 17.0 mph 96% 0.00 in
23:20 39.5 °F 38.5 °F 30.02 in NNW 8.0 mph 17.0 mph 96% 0.00 in
23:24 39.5 °F 38.5 °F 30.02 in NNW 8.0 mph 15.0 mph 96% 0.00 in
23:29 39.4 °F 38.4 °F 30.03 in NNW 11.0 mph 15.0 mph 96% 0.00 in
23:30 39.4 °F 38.4 °F 30.02 in NW 7.0 mph 14.0 mph 96% 0.00 in
23:31 39.4 °F 38.4 °F 30.02 in NNW 9.0 mph 14.0 mph 96% 0.00 in
23:32 39.4 °F 38.4 °F 30.02 in NNW 10.0 mph 15.0 mph 96% 0.00 in
23:35 39.4 °F 38.4 °F 30.02 in NW 10.0 mph 20.0 mph 96% 0.00 in
23:40 39.3 °F 38.3 °F 30.02 in NNW 10.0 mph 18.0 mph 96% 0.00 in
23:42 39.3 °F 38.3 °F 30.02 in NNW 8.0 mph 16.0 mph 96% 0.00 in
23:45 39.3 °F 38.3 °F 30.02 in NNW 14.0 mph 16.0 mph 96% 0.00 in
23:46 39.3 °F 38.3 °F 30.02 in NNE 15.0 mph 16.0 mph 96% 0.00 in
23:47 39.2 °F 38.2 °F 30.02 in NW 19.0 mph 19.0 mph 96% 0.00 in
23:51 39.2 °F 38.2 °F 30.03 in NNW 13.0 mph 23.0 mph 96% 0.00 in
23:52 39.1 °F 38.1 °F 30.03 in NNW 15.0 mph 23.0 mph 96% 0.00 in
23:54 39.1 °F 38.1 °F 30.03 in NW 8.0 mph 16.0 mph 96% 0.00 in
23:56 39.2 °F 38.4 °F 30.03 in NW 10.0 mph 15.0 mph 97% 0.00 in
23:58 39.2 °F 38.4 °F 30.03 in North 18.0 mph 18.0 mph 97% 0.00 in
23:59 39.2 °F 38.4 °F 30.03 in NNW 16.0 mph 20.0 mph 97% 0.00 in
Compliments of Weather Underground